Flag for Malaysia Weather past 2 weeks in Johor Bahru, Malaysia

Now
82 °F

Passing clouds.


Feels Like: 89 °F
Forecast: 76 / 89 °F
Wind: 8 mph from Southwest

Location: Singapore / Paya Lebar

Current Time: Aug 2, 2015 at 12:21:52 AM

Latest Report: Aug 1, 2015 at 11:00 PM


Visibility: N/A

Pressure: 29.89 "Hg

Humidity: 79%

Dew point: 75 °F

Location of Johor BahruLocation

Historic Weather in Johor Bahru — Graph

°F

Johor Bahru temperature yesterday

Maximum temperature yesterday: 88 °F (at 6:00 PM)
Minimum temperature yesterday: 75 °F (at 9:00 AM)
Average temperature yesterday: 82 °F

Past Weeks' High & Low Weather Summary

 TemperatureHumidityPressure
High93 °F (Jul 22, 3:00 PM)94% (Jul 25, 7:00 AM)29.95 "Hg (Jul 25, 7:00 AM)
Low75 °F (Aug 1, 9:00 AM)52% (Jul 22, 1:00 PM)29.74 "Hg (Jul 18, 4:00 PM)
Average86 °F72%29.85 "Hg
* Reported Jul 17 11:00 PM — Aug 1 11:00 PM, Johor Bahru, Weather by CustomWeather, © 2015

Note: Actual official high and low records may vary slightly from our data, if they occured in-between our weather recording intervals... More about our weather records

Advertising

Johor Bahru weather history for previous 24 hours

 ConditionsComfort  
Time TempWeatherWind HumidityBarometerVisibility
11:00 PM
Sat, Aug 1
82 °FPassing clouds.8 mph79%29.89 "HgN/A
10:00 PM82 °FPassing clouds.7 mph79%29.89 "HgN/A
9:00 PM82 °FPassing clouds.7 mph79%29.86 "HgN/A
8:00 PM84 °FPassing clouds.6 mph70%29.83 "HgN/A
7:00 PM84 °FBroken clouds.9 mph70%29.83 "HgN/A
6:00 PM88 °FPartly sunny.8 mph66%29.80 "HgN/A
5:00 PM86 °FBroken clouds.3 mph66%29.80 "HgN/A
4:00 PM86 °FPartly sunny.8 mph66%29.83 "HgN/A
3:00 PM84 °FBroken clouds.14 mph70%29.83 "HgN/A
2:00 PM82 °FScattered clouds.15 mph79%29.86 "HgN/A
1:00 PM82 °FPartly sunny.13 mph79%29.89 "HgN/A
12:00 PM82 °FLight rain. Scattered clouds.10 mph79%29.89 "HgN/A
11:00 AM79 °FLight rain. Partly sunny.7 mph89%29.92 "Hg5 mi
10:00 AM77 °FLight rain. Overcast.1 mph89%29.89 "Hg5 mi
9:00 AM75 °FLight rain. Overcast.8 mph94%29.89 "Hg5 mi
8:00 AM77 °FLight rain. Overcast.9 mph89%29.89 "Hg5 mi
7:00 AM77 °FLight rain. Overcast.9 mph89%29.89 "Hg5 mi
6:00 AM79 °FLight rain. Passing clouds.8 mph89%29.86 "Hg5 mi
5:00 AM79 °FPassing clouds.7 mph89%29.86 "HgN/A
Weather by CustomWeather, © 2015

See weather overviewHow to use our weather pages